• In France
  • List of Countries
  • For 7 days
  • Water Temperature
  • Satellite Maps
  • Weather Map
  • Weather Widgets
  • user-avatar
    Login

    Hourly Weather Myshkovo

    Today, 18 July, Wednesday

    Time Temperature Precipitation Wind Pressure Humidity
    00:00 +19°C° 0 mm 2 mps 742 mmHg 89%
    01:00 +19°C° 0 mm 3 mps 742 mmHg 89%
    02:00 +19°C° 0 mm 3 mps 742 mmHg 90%
    03:00 +19°C° 0 mm 3 mps 742 mmHg 89%
    04:00 +18°C° 0 mm 3 mps 742 mmHg 89%
    05:00 +18°C° 0 mm 3 mps 742 mmHg 89%
    06:00 +20°C° 0 mm 3 mps 742 mmHg 82%
    07:00 +21°C° 0 mm 4 mps 742 mmHg 76%
    08:00 +23°C° 0 mm 4 mps 742 mmHg 70%
    09:00 +25°C° 0 mm 4 mps 742 mmHg 65%
    10:00 +26°C° 0 mm 4 mps 742 mmHg 61%
    11:00 +27°C° 0 mm 4 mps 742 mmHg 57%
    12:00 +27°C° 1.4 mm 4 mps 742 mmHg 65%
    13:00 +26°C° 1.4 mm 4 mps 741 mmHg 73%
    14:00 +26°C° 1.4 mm 4 mps 741 mmHg 80%
    15:00 +25°C° 1.4 mm 3 mps 741 mmHg 82%
    16:00 +24°C° 1.4 mm 3 mps 741 mmHg 83%
    17:00 +24°C° 1.4 mm 3 mps 741 mmHg 85%
    18:00 +22°C° 2 mm 3 mps 741 mmHg 87%
    19:00 +21°C° 2 mm 3 mps 741 mmHg 89%
    20:00 +20°C° 2 mm 3 mps 741 mmHg 91%
    21:00 +20°C° 1.8 mm 2 mps 741 mmHg 92%
    22:00 +19°C° 1.8 mm 2 mps 741 mmHg 94%
    23:00 +19°C° 1.8 mm 2 mps 741 mmHg 95%

    Tomorrow, 19 July, Thursday

    Time Temperature Precipitation Wind Pressure Humidity
    00:00 +19°C° 0.4 mm 2 mps 741 mmHg 96%
    01:00 +18°C° 0.4 mm 2 mps 741 mmHg 96%
    02:00 +18°C° 0.4 mm 2 mps 741 mmHg 97%
    03:00 +18°C° 0.5 mm 3 mps 741 mmHg 97%
    04:00 +18°C° 0.5 mm 3 mps 741 mmHg 97%
    05:00 +18°C° 0.5 mm 3 mps 741 mmHg 98%
    06:00 +19°C° 0.7 mm 3 mps 741 mmHg 97%
    07:00 +19°C° 0.7 mm 3 mps 741 mmHg 96%
    08:00 +20°C° 0.7 mm 3 mps 741 mmHg 95%
    09:00 +20°C° 0.3 mm 3 mps 741 mmHg 92%
    10:00 +21°C° 0.3 mm 3 mps 742 mmHg 89%
    11:00 +22°C° 0.3 mm 4 mps 742 mmHg 86%
    12:00 +23°C° 0.7 mm 4 mps 742 mmHg 84%
    13:00 +23°C° 0.7 mm 4 mps 741 mmHg 82%
    14:00 +25°C° 0.7 mm 4 mps 741 mmHg 80%
    15:00 +25°C° 0.2 mm 4 mps 741 mmHg 78%
    16:00 +25°C° 0.2 mm 4 mps 741 mmHg 76%
    17:00 +25°C° 0.2 mm 3 mps 741 mmHg 74%
    18:00 +24°C° 0 mm 3 mps 741 mmHg 79%
    19:00 +22°C° 0 mm 3 mps 741 mmHg 83%
    20:00 +21°C° 0 mm 2 mps 741 mmHg 88%
    21:00 +20°C° 0 mm 2 mps 741 mmHg 90%
    22:00 +20°C° 0 mm 2 mps 741 mmHg 93%
    23:00 +19°C° 0 mm 2 mps 741 mmHg 95%

    Day after tomorrow, 20 July, Friday

    Time Temperature Precipitation Wind Pressure Humidity
    00:00 +19°C° 0 mm 2 mps 741 mmHg 96%
    01:00 +18°C° 0 mm 2 mps 741 mmHg 97%
    02:00 +18°C° 0 mm 2 mps 740 mmHg 98%
    03:00 +18°C° 0 mm 2 mps 740 mmHg 97%
    04:00 +18°C° 0 mm 2 mps 740 mmHg 97%
    05:00 +18°C° 0 mm 2 mps 740 mmHg 96%
    06:00 +19°C° 0 mm 3 mps 740 mmHg 94%
    07:00 +19°C° 0 mm 3 mps 740 mmHg 92%
    08:00 +20°C° 0 mm 3 mps 740 mmHg 90%
    09:00 +20°C° 0.1 mm 3 mps 740 mmHg 89%
    10:00 +21°C° 0.1 mm 3 mps 740 mmHg 89%
    11:00 +21°C° 0.1 mm 3 mps 741 mmHg 88%
    12:00 +22°C° 0.8 mm 3 mps 740 mmHg 88%
    13:00 +24°C° 0.8 mm 3 mps 740 mmHg 88%
    14:00 +24°C° 0.8 mm 3 mps 740 mmHg 88%
    15:00 +24°C° 1.1 mm 3 mps 740 mmHg 89%
    16:00 +24°C° 1.1 mm 3 mps 740 mmHg 89%
    17:00 +24°C° 1.1 mm 3 mps 740 mmHg 89%
    18:00 +23°C° 0.3 mm 2 mps 740 mmHg 92%
    19:00 +21°C° 0.3 mm 2 mps 739 mmHg 94%
    20:00 +20°C° 0.3 mm 2 mps 739 mmHg 97%
    21:00 +20°C° 0 mm 2 mps 739 mmHg 97%
    22:00 +20°C° 0 mm 1 mps 739 mmHg 98%
    23:00 +20°C° 0 mm 1 mps 739 mmHg 98%

    21 July, Saturday

    Time Temperature Precipitation Wind Pressure Humidity
    00:00 +20°C° 0 mm 1 mps 739 mmHg 98%
    01:00 +20°C° 0 mm 1 mps 739 mmHg 98%
    02:00 +19°C° 0 mm 1 mps 739 mmHg 98%
    03:00 +20°C° 0 mm 1 mps 739 mmHg 98%
    04:00 +20°C° 0 mm 1 mps 739 mmHg 98%
    05:00 +20°C° 0 mm 1 mps 739 mmHg 98%
    06:00 +21°C° 0 mm 1 mps 740 mmHg 96%
    07:00 +22°C° 0 mm 1 mps 740 mmHg 94%
    08:00 +22°C° 0 mm 1 mps 740 mmHg 92%
    09:00 +24°C° 0.1 mm 1 mps 740 mmHg 86%
    10:00 +25°C° 0.1 mm 1 mps 740 mmHg 80%
    11:00 +26°C° 0.1 mm 1 mps 740 mmHg 74%
    12:00 +27°C° 0.3 mm 1 mps 740 mmHg 72%
    13:00 +28°C° 0.3 mm 1 mps 740 mmHg 69%
    14:00 +28°C° 0.3 mm 1 mps 739 mmHg 66%
    15:00 +28°C° 0.7 mm 1 mps 739 mmHg 70%
    16:00 +28°C° 0.7 mm 1 mps 739 mmHg 74%
    17:00 +25°C° 0.7 mm 0 mps 739 mmHg 78%
    18:00 +26°C° 0.4 mm 1 mps 739 mmHg 82%
    19:00 +25°C° 0.4 mm 1 mps 739 mmHg 86%
    20:00 +23°C° 0.4 mm 1 mps 739 mmHg 90%
    21:00 +23°C° 0.1 mm 1 mps 739 mmHg 92%
    22:00 +22°C° 0.1 mm 1 mps 739 mmHg 93%
    23:00 +22°C° 0.1 mm 1 mps 739 mmHg 95%

    22 July, Sunday

    Time Temperature Precipitation Wind Pressure Humidity
    00:00 +21°C° 0 mm 1 mps 739 mmHg 95%
    01:00 +21°C° 0 mm 1 mps 739 mmHg 96%
    02:00 +21°C° 0 mm 1 mps 739 mmHg 96%
    03:00 +21°C° 0.3 mm 1 mps 739 mmHg 97%
    04:00 +21°C° 0.3 mm 1 mps 740 mmHg 97%
    05:00 +21°C° 0.3 mm 1 mps 740 mmHg 97%
    06:00 +22°C° 0.1 mm 1 mps 740 mmHg 94%
    07:00 +23°C° 0.1 mm 1 mps 740 mmHg 91%
    08:00 +24°C° 0.1 mm 1 mps 740 mmHg 88%
    09:00 +25°C° 0.2 mm 1 mps 740 mmHg 83%
    10:00 +27°C° 0.2 mm 1 mps 740 mmHg 77%
    11:00 +28°C° 0.2 mm 1 mps 740 mmHg 72%
    12:00 +28°C° 0.7 mm 1 mps 740 mmHg 70%
    13:00 +29°C° 0.7 mm 1 mps 740 mmHg 68%
    14:00 +29°C° 0.7 mm 1 mps 739 mmHg 66%
    15:00 +29°C° 1.5 mm 1 mps 739 mmHg 72%
    16:00 +28°C° 1.5 mm 1 mps 739 mmHg 78%
    17:00 +28°C° 1.5 mm 1 mps 739 mmHg 84%
    18:00 +26°C° 0.9 mm 1 mps 739 mmHg 87%
    19:00 +25°C° 0.9 mm 1 mps 739 mmHg 89%
    20:00 +23°C° 0.9 mm 1 mps 740 mmHg 91%
    21:00 +23°C° 0.1 mm 1 mps 740 mmHg 92%
    22:00 +22°C° 0.1 mm 1 mps 739 mmHg 93%
    23:00 +22°C° 0.1 mm 1 mps 739 mmHg 95%

    23 July, Monday

    Time Temperature Precipitation Wind Pressure Humidity
    00:00 +21°C° 0.4 mm 1 mps 740 mmHg 95%
    01:00 +21°C° 0.4 mm 1 mps 740 mmHg 96%
    02:00 +21°C° 0.4 mm 1 mps 740 mmHg 97%
    03:00 +21°C° 0.1 mm 1 mps 740 mmHg 97%
    04:00 +21°C° 0.1 mm 1 mps 740 mmHg 97%
    05:00 +21°C° 0.1 mm 1 mps 740 mmHg 97%
    06:00 +22°C° 0.1 mm 1 mps 740 mmHg 94%
    07:00 +23°C° 0.1 mm 1 mps 740 mmHg 92%
    08:00 +24°C° 0.1 mm 1 mps 740 mmHg 89%
    09:00 +25°C° 1.2 mm 2 mps 740 mmHg 87%
    10:00 +26°C° 1.2 mm 2 mps 740 mmHg 85%
    11:00 +27°C° 1.2 mm 2 mps 740 mmHg 83%
    12:00 +26°C° 1.3 mm 2 mps 740 mmHg 85%
    13:00 +26°C° 1.3 mm 2 mps 740 mmHg 87%
    14:00 +26°C° 1.3 mm 2 mps 740 mmHg 89%
    15:00 +26°C° 0.6 mm 2 mps 740 mmHg 88%
    16:00 +26°C° 0.6 mm 2 mps 740 mmHg 88%
    17:00 +26°C° 0.6 mm 2 mps 740 mmHg 87%
    18:00 +25°C° 0.5 mm 2 mps 740 mmHg 89%
    19:00 +24°C° 0.5 mm 2 mps 741 mmHg 91%
    20:00 +23°C° 0.5 mm 2 mps 741 mmHg 93%
    21:00 +21°C° 0 mm 2 mps 741 mmHg 94%
    22:00 +21°C° 0 mm 2 mps 741 mmHg 95%
    23:00 +20°C° 0 mm 2 mps 741 mmHg 97%
    Show more